SL-14 DEB

Satellite information

Favourite Embed

Satellite Type and Status

DEBRISIN ORBIT

Key statistics

Satellite SL-14 DEB at a glance.

Uptime

12455

Days in orbit

Revolutions

≈ 12.7

Per day

Orbit

LEO

Low Earth Orbit

Inclination

82.7

Latest

Satellite identification and parameters

Extended collection of information and parameters for SL-14 DEB.

Object identification

Identified? True

Debris? True

Object name: SL-14 DEB

International designator: 1991-068AU

Object number (NORAD): 26030

Object ID (CCSDS): 26030

Country: COMMONWEALTH OF INDEPENDENT STATES (CIS)

Current information (Y/N): Y

RCS size: SMALL

Orbital parameters

Period: 113.627 minutes

Inclination: 82.6786 deg

SMA: 7771.086 km

Apoapsis: 1457.108 km

Periapsis: 1328.793 km

RAAN: 181.7554 deg

Eccentricy: 0.0082559

Argument of periapsis: 77.372 deg

Mean anomaly: 107.5316 deg

Mean motion: 12.6730225 rev/day

Mean motion (dot): 0.00000311 rev/day2

B* drag term: 0.0015469 1/REarth

Two-line elements (TLE)

Creation date: Nov. 2, 2025, 4:26 p.m.

Reference frame: TEME

Reference center: EARTH

Epoch: Nov. 2, 2025, 10:03 a.m. UTC

TLE line 0: 0 SL-14 DEB

TLE line 1: 1 26030U 91068AU 25306.41906323 .00000311 00000-0 15469-2 0 9991

TLE line 2: 2 26030 82.6786 181.7554 0082559 77.3720 107.5316 12.67302250563887

Live tracking on map

Real-time ground track for satellite SL-14 DEB.

In-orbit conjunctions

A list of the most updated potential collisions computed for object SL-14 DEB.

Target Orbit TCA Probability of collision Miss distance Type
COSMOS 1931 LEO 2025-10-12 12:34:29 0.0001233017 291.0 (m) PAYLOAD

Associated space launch

Second generation store-dump military communications satellite

SL-14 DEB was lifted into orbit during the mission ‘Tsiklon-3 | Strela-3 67 to 72’, on board a Tsiklon-3 space rocket.

The launch took place on Sept. 28, 1991, 7:05 a.m. from 32/2.

For more information about the launch, click the button.

Launch to space Tsiklon-3 | Strela-3 67 to 72
Tsiklon-3 | Strela-3 67 to 72

Agency: N/A

Status: Launch Successful

Launch date: Sept. 28, 1991, 7:05 a.m. UTC

Rocket: Tsiklon-3

Launch pad: 32/2

Location: Plesetsk Cosmodrome, Russian Federation

...

Latest news about this satellite

There are no fresh news available about this satellite. Check back as we update our databases every day.


Newsletter sign-up

Weekly statistics, charts and insights to help you stay on top of the space industry.